Location: Newark
(44.9861°N, 0.2536°E)
Time: 19:59:16
(UTC+00:00)

HuskySat-1 - Pass Details

Date: 14 July 2020
Orbit: 457 x 471 km, 51.6° (Epoch: 11 August)

Event Time Altitude Azimuth Distance (km) Brightness Sun altitude
Rises 02:53:38 0° 295° (WNW) 2,491 ? -13.1°
Reaches altitude 10° 02:55:57 10° 306° (NW) 1,612 ? -12.8°
Maximum altitude 02:59:13 31° 11° (N) 831 ? -12.5°
Drops below altitude 10° 03:02:30 10° 75° (ENE) 1,603 ? -12.1°
Sets 03:04:48 0° 86° (E) 2,474 ? -11.8°
